LKKB Weather Reports


time (UTC)temp
C
wind
direction
speed
KPH
gust
KPH
rain 1hr
cm
rain 24hr
cm
rain mn
cm
humidity
%
barometer
mb
20260902233102 15 210 8.0 0.0 0.00 0.00 0.00 82 1020.0
20260902231851 16 190 8.0 0.0 0.00 0.00 0.00 77
20260902230104 16 190 8.0 0.0 0.00 0.00 0.00 82 1020.0
20260902223103 16 200 4.8 0.0 0.00 0.00 0.00 77 1020.0
20260902222253 16 160 8.0 0.0 0.00 0.00 0.00 77
20260902213102 17 190 9.7 0.0 0.00 0.00 0.00 77 1020.0
20260902211853 17 200 11.3 0.0 0.00 0.00 0.00 77
20260902210212 17 200 11.3 0.0 0.00 0.00 0.00 77 1020.0
20260902203103 17 0 0.0 0.0 0.00 0.00 0.00 77 1020.0
20260902201854 17 40 3.2 0.0 0.00 0.00 0.00 67
20260902200103 17 0 3.2 0.0 0.00 0.00 0.00 72 1020.0
20260902193103 18 0 1.6 0.0 0.00 0.00 0.00 68 1020.0
20260902192055 20 220 3.2 0.0 0.00 0.00 0.00 60
20260902190211 20 0 3.2 0.0 0.00 0.00 0.00 64 1020.0
20260902183102 21 0 1.6 0.0 0.00 0.00 0.00 56 1019.0
20260902181851 22 360 3.2 0.0 0.00 0.00 0.00 53
20260902180103 21 0 1.6 0.0 0.00 0.00 0.00 60 1019.0
20260902173102 22 0 1.6 0.0 0.00 0.00 0.00 49 1019.0
20260902172054 22 280 3.2 0.0 0.00 0.00 0.00 49
20260902163103 22 230 9.7 0.0 0.00 0.00 0.00 49 1019.0
20260902162254 23 250 8.0 0.0 0.00 0.00 0.00 41
20260902153103 23 220 8.0 0.0 0.00 0.00 0.00 41 1019.0
20260902151850 23 210 3.2 0.0 0.00 0.00 0.00 41
20260902143103 23 260 4.8 0.0 0.00 0.00 0.00 44 1019.0
20260902142054 23 250 8.0 0.0 0.00 0.00 0.00 38
20260902140212 23 200 11.3 0.0 0.00 0.00 0.00 41 1020.0
20260902133103 22 240 9.7 0.0 0.00 0.00 0.00 43 1020.0
20260902132052 23 250 11.3 0.0 0.00 0.00 0.00 38
20260902130103 23 270 8.0 0.0 0.00 0.00 0.00 44 1020.0
20260902123102 22 280 9.7 0.0 0.00 0.00 0.00 46 1020.0
20260902121853 22 220 11.3 0.0 0.00 0.00 0.00 43
20260902113103 22 0 3.2 0.0 0.00 0.00 0.00 49 1021.0
20260902112052 22 240 11.3 0.0 0.00 0.00 0.00 53
20260902110210 22 210 8.0 0.0 0.00 0.00 0.00 53 1021.0
20260902103102 22 260 9.7 0.0 0.00 0.00 0.00 53 1021.0
20260902102153 21 230 8.0 0.0 0.00 0.00 0.00 56
20260902093103 21 310 4.8 0.0 0.00 0.00 0.00 60 1021.0
20260902091851 20 310 3.2 0.0 0.00 0.00 0.00 60
20260902090104 21 0 3.2 0.0 0.00 0.00 0.00 60 1021.0
20260902083102 18 180 4.8 0.0 0.00 0.00 0.00 68 1021.0
20260902082051 17 200 3.2 0.0 0.00 0.00 0.00 67
20260902080104 18 0 1.6 0.0 0.00 0.00 0.00 68 1021.0
20260902073102 17 0 3.2 0.0 0.00 0.00 0.00 67 1022.0
20260902071951 17 210 8.0 0.0 0.00 0.00 0.00 72
20260902070211 17 210 4.8 0.0 0.00 0.00 0.00 72 1021.0
20260902063103 15 210 4.8 0.0 0.00 0.00 0.00 82 1021.0
20260902061852 15 210 8.0 0.0 0.00 0.00 0.00 77
20260902060104 15 220 9.7 0.0 0.00 0.00 0.00 77 1021.0
20260902053104 13 220 8.0 0.0 0.00 0.00 0.00 87 1021.0
20260902052038 12 200 8.0 0.0 0.00 0.00 0.00 82
20260902050104 12 210 4.8 0.0 0.00 0.00 0.00 87 1021.0
20260902043103 12 180 8.0 0.0 0.00 0.00 0.00 87 1021.0
20260902042154 12 180 8.0 0.0 0.00 0.00 0.00 87
20260902040209 12 180 8.0 0.0 0.00 0.00 0.00 87 1021.0
20260902033103 12 190 8.0 0.0 0.00 0.00 0.00 87 1021.0
20260902031851 12 180 8.0 0.0 0.00 0.00 0.00 87
20260902030211 12 190 9.7 0.0 0.00 0.00 0.00 87 1021.0
20260902023103 12 210 4.8 0.0 0.00 0.00 0.00 82 1021.0
20260902022051 13 230 8.0 0.0 0.00 0.00 0.00 76
20260902013103 12 210 9.7 0.0 0.00 0.00 0.00 87 1021.0
20260902012051 12 200 11.3 0.0 0.00 0.00 0.00 82
20260902003102 12 200 4.8 0.0 0.00 0.00 0.00 82 1021.0
20260902001852 13 190 11.3 0.0 0.00 0.00 0.00 76
20260902000211 13 190 9.7 0.0 0.00 0.00 0.00 82 1021.0